Theta_e
311 312 311 312 312 312 312 312 311 311 311 311 311 312 312 313 313 313 313 313 313 313 313 313 314 314 314 314 314 314 314 313 312 311 310 314 321 322 323 320 322 322 325 322 319 316 312 313 311 312 309 306 307 307 310 309 309 307 301 299 297 299 298 301 299 301 303 301 303 305 305 305 303 307 308 310 323 326 327 330 335 338 339 339 341 344 344 344
311 311 311 311 311 311 311 311 312 311 312 312 312 312 312 312 312 313 313 313 313 313 313 313 314 314 314 314 314 314 313 312 311 312 313 320 321 319 325 324 324 323 326 317 315 314 312 310 310 310 306 304 307 306 309 307 309 303 301 300 297 301 302 303 303 303 302 302 304 305 306 305 305 306 308 306 309 314 323 328 333 333 337 338 339 341 342 342
311 311 311 310 311 311 311 311 311 312 311 312 312 312 312 312 312 313 313 313 313 313 313 313 313 314 314 314 314 314 313 311 311 311 316 325 323 323 324 326 323 324 324 315 315 314 312 311 311 308 306 304 303 305 306 307 307 305 303 299 299 303 302 304 303 303 305 305 304 304 305 305 307 307 309 305 307 310 316 323 328 330 332 335 336 339 341 341
310 310 311 311 312 312 311 311 311 311 311 311 312 312 312 312 312 312 312 313 313 313 313 313 313 314 314 314 314 315 313 310 306 311 316 326 327 324 323 326 324 324 324 318 316 314 313 313 310 308 305 303 303 307 301 307 302 305 302 299 301 303 301 303 303 305 305 306 304 305 306 305 307 307 307 306 306 310 316 322 325 328 334 335 336 338 340 340
310 310 311 310 311 311 311 311 311 311 311 311 311 312 312 312 312 312 312 312 313 312 312 313 313 313 314 314 313 315 312 302 307 313 321 333 332 325 324 326 324 322 320 316 315 314 312 310 308 306 304 301 303 303 302 307 306 307 302 303 304 304 300 304 305 305 305 306 305 305 304 304 308 307 306 306 303 305 312 324 327 330 337 337 336 336 339 339
310 310 310 310 310 311 311 311 311 311 311 311 311 312 312 312 312 312 312 312 312 312 312 312 313 313 314 313 313 314 309 291 303 309 333 329 328 325 325 326 324 321 315 314 312 311 309 308 307 303 302 303 301 299 302 306 307 299 303 303 305 305 302 305 306 305 306 305 305 304 306 307 305 305 307 306 305 308 313 320 324 329 335 339 339 338 338 339
310 310 310 310 310 310 310 311 311 311 311 311 311 311 312 312 312 312 312 312 312 312 312 312 312 313 313 312 316 311 304 300 305 321 332 328 326 326 327 327 327 315 314 312 310 308 308 306 305 302 301 301 302 301 303 304 306 302 300 305 304 305 303 305 305 306 306 305 305 307 307 304 304 302 307 305 308 309 314 318 319 327 334 339 338 339 338 338
309 310 310 310 310 310 310 310 311 311 311 311 311 311 311 312 311 311 311 311 312 312 312 312 312 313 312 313 311 304 301 300 308 324 330 329 328 327 327 320 316 312 311 309 308 307 306 304 302 303 301 300 303 301 304 302 304 301 299 303 304 305 305 306 306 306 306 306 308 306 304 304 305 304 306 305 308 312 318 324 324 329 335 338 338 337 338 338
309 310 309 310 310 310 310 310 310 311 311 311 311 311 311 311 311 311 311 311 311 311 311 312 312 313 312 311 306 297 298 308 316 326 331 325 325 327 321 314 314 310 309 309 309 307 305 303 303 303 299 299 303 301 304 300 299 302 302 304 304 304 305 306 306 306 306 306 306 304 303 305 306 306 304 307 310 320 325 329 328 333 335 336 337 337 337 338
309 309 309 309 309 310 310 310 310 311 311 310 311 311 310 311 311 311 311 311 311 311 311 312 312 312 311 310 304 296 303 311 324 329 328 323 316 316 314 314 313 311 308 308 307 306 304 304 303 304 304 301 303 301 304 301 302 305 304 304 303 304 305 306 304 305 305 304 305 302 303 304 306 304 302 316 327 326 329 330 332 333 333 335 336 337 339 338
309 309 309 309 309 310 310 310 310 310 311 311 310 310 310 310 310 310 310 310 311 311 311 311 312 310 311 304 297 296 306 314 324 326 326 321 315 314 314 313 313 310 309 307 306 307 306 305 306 306 303 301 302 302 303 303 305 304 303 303 303 303 304 304 304 303 305 303 305 304 303 304 305 304 303 310 324 325 328 330 332 332 333 335 337 336 338 338
309 309 309 309 309 309 309 310 310 310 310 311 310 310 310 310 310 310 310 310 310 310 310 310 311 310 309 305 298 299 309 316 324 325 324 320 316 317 316 315 314 313 310 307 307 308 307 307 306 303 300 305 299 304 301 306 304 303 303 298 300 302 301 303 302 303 304 302 305 305 302 301 302 301 306 311 320 324 325 328 330 331 334 336 336 336 337 336
308 309 309 309 309 309 309 309 310 309 310 310 310 310 310 310 310 309 310 310 310 310 310 310 309 311 308 300 302 309 311 321 323 322 320 319 317 318 317 317 316 314 313 310 308 308 308 307 307 303 305 304 302 298 305 306 304 304 302 300 299 299 299 303 304 303 302 303 304 303 293 298 301 304 306 309 317 323 323 325 328 330 333 335 335 335 335 333
308 308 309 309 309 309 309 309 309 310 310 310 310 310 309 309 309 310 310 310 310 310 309 309 312 308 309 299 302 306 315 318 319 317 314 315 312 311 312 314 316 315 314 312 310 311 308 308 307 306 309 305 302 308 304 303 303 298 301 301 297 297 297 301 302 302 300 303 302 303 295 298 302 304 307 315 319 321 319 322 324 327 331 332 333 333 333 335
308 308 308 308 308 309 309 309 309 309 309 310 310 309 308 308 310 311 311 311 311 310 310 312 312 309 304 302 310 311 315 312 309 311 315 311 308 308 309 312 313 314 314 312 310 309 309 307 306 303 301 307 307 302 300 301 301 301 296 294 298 296 298 300 302 301 299 302 304 301 296 298 302 304 307 315 320 321 320 321 322 325 330 331 330 332 333 335
308 308 308 308 308 308 308 309 309 309 309 309 309 308 308 309 311 309 309 311 309 309 312 308 309 307 301 298 310 318 311 304 306 310 313 313 309 306 310 310 313 313 312 311 311 309 308 306 303 303 303 304 303 300 299 299 298 300 297 297 296 297 297 298 301 302 302 301 303 301 296 300 300 304 306 313 316 318 319 321 323 325 327 331 329 332 333 334
308 308 308 308 308 308 308 308 309 309 309 308 308 308 308 309 311 310 310 311 311 312 312 305 309 309 299 307 313 307 307 311 315 316 312 313 311 309 310 310 309 310 311 310 310 307 305 303 305 303 304 301 302 301 296 295 295 297 298 295 298 296 297 295 299 302 302 301 299 302 298 299 302 304 305 309 313 315 315 317 320 323 326 330 330 332 331 331
307 308 308 308 308 308 308 308 308 308 308 308 307 307 308 309 309 310 310 312 313 311 311 312 308 306 301 305 298 302 311 310 311 314 313 315 312 310 310 308 310 309 307 305 306 302 303 300 302 298 299 300 301 299 294 291 295 296 297 296 296 297 297 296 296 299 300 301 299 300 299 300 302 304 305 305 310 313 314 315 317 321 324 328 327 331 331 330
307 307 307 307 307 307 308 308 308 308 308 307 308 307 308 310 311 312 310 309 307 306 301 304 303 293 291 300 304 307 310 310 311 310 310 312 312 312 311 311 310 306 303 302 301 302 300 301 300 298 295 296 297 298 296 297 297 297 297 297 297 296 296 296 298 301 300 298 298 298 298 299 301 303 305 306 307 310 312 315 316 319 323 327 326 329 331 331
307 307 307 307 307 307 307 307 307 307 307 306 310 311 312 310 308 307 308 308 305 302 302 303 304 302 300 302 303 309 311 311 306 309 313 314 311 309 307 309 307 307 304 300 300 302 302 296 293 293 296 298 300 300 300 300 298 297 297 296 296 296 297 298 298 300 302 298 298 298 299 299 300 302 304 306 307 308 308 310 313 316 321 324 325 327 331 332
307 307 307 307 307 307 307 307 307 307 306 308 309 306 300 302 296 296 300 302 306 307 305 304 304 303 301 305 306 305 303 305 308 308 312 316 311 307 304 306 304 301 302 302 301 304 301 295 296 298 299 300 301 303 302 301 300 297 297 296 296 297 296 299 298 300 302 298 297 300 299 299 300 302 304 306 306 305 306 307 310 314 319 321 325 326 330 332
306 306 306 307 307 307 307 307 307 307 305 309 307 302 304 304 305 306 303 297 303 306 306 305 306 304 308 306 308 308 305 301 302 307 314 314 309 302 303 303 301 298 303 303 302 298 296 294 298 300 302 303 303 302 302 300 299 298 297 297 296 297 298 299 299 299 300 299 297 299 298 299 301 302 304 305 305 307 308 308 308 311 315 317 322 327 330 331
306 306 306 307 307 307 307 307 307 305 309 308 305 302 303 307 311 311 308 302 301 306 304 303 302 303 304 307 308 308 300 298 297 304 309 313 307 304 303 299 300 300 302 301 297 296 294 296 300 302 303 301 300 300 300 300 300 298 297 295 294 297 295 294 298 299 300 299 297 298 297 298 301 303 303 305 305 306 307 307 308 310 314 318 321 326 329 330
306 306 306 306 307 307 307 306 306 307 308 304 301 303 308 310 310 310 305 299 296 301 303 304 304 304 303 303 308 305 300 300 301 300 312 310 305 305 303 299 299 299 299 300 298 297 296 300 303 302 301 299 299 299 299 298 296 299 298 296 296 296 297 296 297 299 301 300 301 298 296 296 299 299 300 304 306 305 306 308 310 312 316 321 324 327 330 330
305 306 306 306 306 306 306 306 307 308 307 304 304 307 309 310 312 310 304 301 301 300 305 304 305 305 306 310 309 303 303 303 303 304 309 308 306 304 301 303 300 297 299 300 299 298 298 301 303 299 299 299 299 298 298 298 295 297 299 298 297 298 296 297 298 296 295 295 300 297 291 292 300 300 300 303 305 304 306 307 307 308 310 315 322 326 329 331
305 305 306 306 306 305 306 305 308 306 303 303 306 309 310 310 311 312 303 295 291 298 302 298 307 300 310 303 306 305 303 297 304 305 308 307 312 306 304 301 302 297 299 300 299 300 300 302 301 298 298 298 297 297 299 299 295 294 296 300 298 297 297 296 296 295 291 290 298 301 291 288 299 299 301 302 303 303 308 310 309 309 309 309 313 323 328 330
305 305 305 306 305 305 304 302 306 305 300 303 309 311 309 311 314 310 299 293 287 299 297 301 303 301 306 304 304 305 290 294 305 306 305 308 305 310 301 300 301 302 303 304 299 295 301 300 300 299 299 297 296 295 299 299 295 293 300 298 298 297 296 296 296 295 294 299 299 299 297 291 292 297 302 303 303 303 305 310 312 310 312 311 312 318 326 328
305 305 305 305 305 304 303 304 303 301 300 307 309 308 310 312 313 311 298 281 281 300 295 299 301 307 305 305 305 300 300 300 296 301 306 308 308 305 302 300 299 299 301 300 291 301 301 298 299 297 298 297 296 298 300 300 296 297 299 299 297 297 297 297 296 296 296 296 292 296 298 292 291 297 303 303 300 301 303 310 314 315 316 317 318 319 324 327
305 305 305 305 305 305 306 305 304 301 306 308 308 309 310 314 310 300 291 280 296 296 305 296 307 303 302 304 301 301 301 302 297 301 306 307 309 306 298 302 303 301 302 300 295 299 301 301 301 300 298 295 298 300 301 300 296 299 300 299 299 298 297 297 296 295 296 292 288 294 297 290 291 297 298 301 300 300 305 312 315 317 318 319 320 324 325 325
305 305 305 305 305 306 307 307 303 307 308 308 308 310 311 309 303 290 283 277 298 290 297 298 298 295 299 296 298 300 297 299 301 302 304 301 304 307 304 307 303 301 298 301 299 300 300 304 304 301 299 300 301 302 302 301 300 301 299 297 297 297 298 298 297 296 295 287 291 295 297 294 288 295 297 297 303 308 310 313 316 318 319 320 322 322 323 324
305 305 304 305 302 305 305 302 306 309 309 310 310 310 309 304 292 285 278 288 294 294 297 295 294 298 296 294 294 298 298 300 299 301 297 302 301 303 303 301 305 300 299 299 298 299 300 299 299 301 304 302 302 299 302 302 302 299 297 296 296 295 297 296 295 296 287 286 292 296 296 296 287 293 298 303 310 312 312 312 314 315 316 318 321 321 322 325
304 304 304 304 305 306 301 302 305 310 310 311 310 306 301 286 291 281 281 296 285 292 292 292 295 295 295 295 294 295 296 298 300 299 296 297 298 297 298 295 298 292 291 293 293 299 297 297 300 301 304 301 299 298 298 299 299 297 296 295 290 288 288 285 290 284 286 286 294 296 296 293 292 296 299 306 310 313 315 314 314 315 316 319 319 321 322 325
305 304 305 304 305 304 304 308 310 311 312 310 307 302 293 285 277 287 287 291 287 293 292 295 293 294 295 294 294 296 298 295 300 299 299 298 297 297 300 299 300 297 289 295 294 294 295 299 300 300 301 303 301 294 294 293 296 295 294 293 289 285 284 281 285 288 288 292 296 296 297 291 295 298 308 309 313 314 316 316 316 316 317 318 320 323 323 323
304 304 304 307 307 307 309 312 311 311 308 311 305 294 291 281 281 292 291 291 290 294 294 293 293 294 294 293 296 297 294 299 298 298 299 296 296 295 297 299 300 298 297 297 291 293 287 289 295 298 295 302 300 299 298 296 296 295 298 295 293 291 287 281 285 282 284 287 293 296 292 289 290 297 309 311 315 315 316 316 319 320 321 322 322 324 323 325
304 305 307 308 308 308 310 310 312 312 312 305 297 291 281 281 288 288 289 291 292 293 291 295 292 291 292 294 295 298 298 296 299 298 296 296 294 296 296 296 300 300 298 291 296 293 292 292 298 301 300 302 298 301 302 299 298 299 299 299 294 290 296 288 289 289 289 288 288 291 290 296 297 307 309 313 314 314 316 317 317 316 318 320 321 322 323 323
304 309 309 307 306 311 310 310 311 311 309 300 292 285 283 287 285 289 291 294 293 291 291 292 292 290 291 292 295 295 301 298 299 297 297 296 297 295 298 298 297 299 297 292 296 290 293 290 298 299 300 300 300 302 300 302 289 296 296 292 295 301 298 291 290 296 289 288 286 293 294 297 302 306 310 312 312 312 314 314 313 314 316 318 318 320 321 322
306 309 309 311 310 312 311 311 310 310 307 298 289 283 290 289 292 292 294 293 293 293 292 286 290 289 290 290 293 294 297 300 298 297 293 297 295 297 297 298 301 299 300 299 296 299 291 292 298 297 295 300 302 302 302 302 301 297 292 296 300 302 300 294 286 288 287 284 286 293 289 292 294 290 306 310 308 309 310 311 312 313 315 315 316 317 318 319
304 308 312 311 311 312 312 312 311 309 301 294 286 289 291 289 293 294 296 295 295 294 290 288 291 292 290 291 291 293 296 294 297 296 293 296 293 301 297 298 301 300 301 303 297 298 298 290 296 298 298 300 301 300 298 301 302 298 296 302 295 289 288 294 290 282 283 282 285 290 293 292 294 295 301 303 304 309 309 310 310 311 312 313 314 316 318 319
304 306 304 309 313 312 312 313 311 303 296 289 287 284 291 291 295 294 297 297 296 294 289 290 290 292 292 291 292 293 294 292 296 296 294 296 292 301 301 301 300 301 302 302 298 300 300 290 293 298 298 299 300 299 290 295 300 301 301 298 301 298 295 290 290 292 290 284 284 286 291 288 298 302 305 305 307 309 309 309 310 312 313 314 315 316 318 319
305 306 302 313 313 314 314 313 309 299 293 286 289 289 294 291 295 298 299 297 295 292 292 291 292 291 293 293 293 293 294 294 295 296 296 299 295 301 300 303 302 301 302 302 299 302 294 300 288 296 300 299 293 297 294 296 293 294 295 294 296 297 301 297 298 293 291 286 286 286 285 292 300 306 305 306 309 310 310 310 311 311 313 315 316 316 316 318
308 305 303 314 312 314 313 309 302 293 291 294 294 293 294 294 297 297 299 299 298 300 296 294 294 292 293 293 293 295 293 294 294 294 295 298 297 293 301 302 302 302 302 300 299 301 294 295 289 295 295 294 294 301 301 299 300 297 296 294 295 294 292 287 286 296 294 291 286 286 284 294 300 306 307 306 310 312 311 312 312 313 313 315 316 316 317 317
304 297 301 314 314 313 309 299 298 301 297 293 294 295 295 299 296 296 297 299 297 297 300 296 296 294 295 294 294 294 295 294 295 294 296 297 299 299 302 304 303 303 301 296 299 303 302 300 295 291 294 295 299 302 303 303 302 301 300 296 299 298 297 291 284 289 294 294 294 293 288 292 304 306 307 308 310 312 313 313 312 311 311 312 314 315 317 318
303 301 311 313 314 312 305 296 297 295 296 297 298 297 298 296 296 297 295 297 295 297 296 295 295 294 295 294 295 294 296 293 294 295 297 298 299 302 303 304 304 303 303 301 300 301 300 294 292 293 298 300 300 302 302 302 301 299 300 301 299 296 298 295 294 296 293 293 290 291 287 291 301 307 308 309 310 310 311 312 311 310 311 311 311 312 313 315
305 304 305 312 315 311 302 289 290 292 296 297 297 295 297 297 296 295 294 296 295 296 295 295 296 296 295 297 296 293 297 290 295 296 297 299 299 303 304 304 305 304 304 302 299 305 292 296 295 290 290 293 296 298 298 301 301 300 300 302 300 300 300 300 300 299 290 293 293 289 285 290 302 306 308 308 307 307 307 308 310 309 308 308 307 308 309 311
305 307 306 308 312 309 297 298 295 292 294 295 295 293 295 295 297 297 296 295 297 297 296 295 296 297 296 297 295 296 297 295 294 297 297 298 299 303 303 303 305 304 305 306 305 306 296 296 293 287 285 282 283 284 287 290 295 300 300 300 299 299 300 297 290 293 288 293 295 290 289 297 303 304 305 306 306 306 306 305 305 304 304 305 304 305 305 307
300 292 300 304 307 305 302 303 301 296 294 294 291 293 295 293 295 297 297 296 297 297 297 296 297 297 295 295 294 294 294 297 294 295 296 298 299 300 301 303 303 303 304 305 305 306 298 299 296 293 291 289 289 291 296 298 298 294 297 299 299 300 300 300 299 292 290 293 292 294 296 298 299 302 302 305 305 303 302 301 301 302 303 303 303 303 304 306
303 296 296 293 301 301 298 300 298 298 293 297 289 294 292 293 294 295 297 294 296 296 296 296 295 294 294 294 293 293 294 293 296 296 295 296 298 299 301 302 303 302 303 303 305 303 301 293 297 296 295 295 296 296 296 296 296 296 297 298 299 300 301 299 293 291 297 293 288 299 301 299 301 301 303 302 302 301 300 300 300 300 300 301 302 303 303 304
295 300 301 304 296 291 292 293 298 297 297 297 293 295 292 292 293 291 295 296 296 298 294 295 295 294 294 293 294 290 293 293 294 291 295 296 297 299 299 300 299 300 302 302 304 300 296 291 299 298 296 295 295 296 297 297 296 297 297 298 298 300 301 297 297 299 300 293 291 295 300 299 300 302 302 301 300 298 298 298 299 300 301 301 304 306 304 302
303 302 302 303 295 297 298 298 299 297 296 295 293 294 292 292 291 293 294 295 295 295 295 288 292 293 294 295 294 292 293 289 288 295 294 294 294 294 297 299 299 300 300 301 301 302 298 293 298 298 296 295 295 295 296 295 295 295 295 295 297 298 298 299 298 299 300 299 300 300 299 294 295 296 298 298 299 299 298 299 299 299 299 300 301 300 300 299
299 298 297 301 301 298 298 298 297 296 293 294 290 293 292 292 291 293 294 294 290 293 295 293 292 294 294 294 294 292 293 294 293 289 295 294 296 295 291 292 294 299 299 297 298 300 296 291 296 298 294 294 295 296 296 296 296 292 293 293 294 296 297 296 296 296 299 301 300 299 297 293 295 297 297 299 300 299 298 296 296 297 298 298 298 298 299 298
305 306 306 297 294 296 297 296 294 293 290 292 291 292 293 292 292 293 293 296 294 292 293 292 293 294 294 294 294 294 295 295 295 295 296 295 291 295 294 297 297 292 293 294 291 294 297 292 299 297 291 289 294 295 291 292 293 292 290 289 290 292 291 293 291 294 296 294 299 298 296 292 294 296 297 297 297 295 293 294 294 295 296 296 296 296 297 297
307 306 305 303 293 293 295 295 295 293 288 292 294 293 293 292 293 294 290 294 294 295 295 294 294 295 294 294 293 294 296 296 297 297 297 298 298 296 297 296 296 296 295 297 296 296 296 294 290 291 287 288 293 295 292 292 291 287 285 286 288 290 292 295 296 296 294 295 294 293 295 296 296 297 294 293 293 293 293 293 294 294 294 295 294 295 296 296
Wind_Speed
8 8 8 8 8 8 8 8 8 8 8 8 8 9 9 8 9 9 9 8 9 9 9 9 10 10 10 11 10 12 9 11 9 8 7 3 7 10 8 2 11 10 10 11 13 13 12 11 11 10 8 8 5 7 7 7 5 6 7 7 8 6 7 4 3 3 5 4 6 8 8 9 9 10 6 9 6 2 1 4 5 1 2 2 6 12 17 18
8 8 8 8 8 8 8 8 9 9 8 8 8 8 8 8 8 8 9 9 9 9 10 10 11 11 10 10 11 6 8 9 10 7 10 9 8 8 6 3 12 12 12 13 16 15 14 13 11 12 9 7 6 5 9 6 7 8 6 8 8 4 6 3 4 3 4 6 8 8 7 8 8 9 7 9 4 1 4 6 6 8 4 5 7 12 16 16
8 8 8 8 8 8 8 8 8 9 9 9 9 9 8 8 8 8 9 9 10 10 10 11 11 11 11 10 10 7 10 9 8 5 5 7 10 10 8 6 11 11 13 13 13 12 11 12 12 12 8 5 7 6 10 6 9 9 7 8 8 3 3 2 1 3 4 6 8 9 8 9 7 6 8 8 9 5 5 6 7 7 7 7 9 13 15 16
8 8 8 8 9 9 9 9 9 9 9 9 9 9 9 9 9 9 10 10 11 11 11 11 12 12 12 12 8 9 8 9 5 7 5 2 8 13 12 9 12 12 8 8 10 8 5 9 11 10 7 6 6 5 10 7 8 6 8 8 2 3 2 4 1 1 5 6 8 9 10 10 5 8 8 8 10 2 3 1 3 7 9 10 11 14 14 15
8 8 8 8 8 8 9 9 8 9 9 10 10 10 10 9 9 9 10 10 11 11 12 11 12 13 13 12 11 8 7 7 6 3 8 5 3 14 13 10 12 12 8 5 6 6 8 10 11 8 7 5 7 7 9 8 9 1 9 7 2 1 6 3 3 4 6 7 8 9 10 9 10 9 7 8 8 4 5 4 2 3 8 12 13 13 14 16
9 9 9 9 9 9 9 10 9 9 10 10 10 11 11 10 10 10 10 10 11 11 12 12 12 13 14 13 11 7 5 2 3 3 7 4 8 13 13 10 13 9 7 11 9 9 10 10 10 8 7 6 9 8 9 7 9 8 8 9 6 6 7 3 6 6 7 8 9 9 8 9 10 10 8 7 9 6 4 3 4 3 7 11 12 13 15 16
10 9 9 9 9 10 10 10 10 10 10 10 11 11 11 11 11 10 10 11 11 12 12 12 13 14 13 15 8 7 7 4 1 6 7 9 10 12 12 12 12 9 11 10 10 10 10 11 11 8 7 6 8 7 7 9 10 10 6 3 7 7 9 8 9 8 9 9 9 9 10 11 10 12 6 11 8 7 5 4 5 4 6 11 13 14 15 16
10 10 10 9 9 10 10 11 11 11 11 11 11 12 12 12 12 11 11 11 12 12 12 12 13 13 12 9 6 6 7 0 6 5 10 11 11 12 13 13 11 9 10 10 10 9 10 10 10 6 6 6 6 9 8 10 11 11 11 7 5 6 7 7 9 9 8 10 9 9 11 10 10 10 11 12 9 4 4 3 5 6 9 11 12 13 13 13
11 10 10 10 10 10 11 11 12 12 12 12 12 12 12 12 12 12 11 11 12 12 12 12 13 12 10 8 6 8 2 7 4 3 11 12 11 14 17 12 10 8 7 7 7 6 9 8 7 8 2 8 5 9 8 8 9 12 10 5 6 7 7 8 9 9 10 7 6 10 11 10 7 8 13 12 2 2 2 4 5 7 10 11 11 11 12 12
12 11 11 11 10 11 11 11 12 12 13 13 13 13 13 13 13 13 12 11 11 12 13 12 12 12 10 6 6 7 5 1 4 5 10 10 12 15 14 10 12 7 7 6 4 6 8 4 6 6 4 2 4 7 8 11 4 1 7 9 9 8 7 6 10 8 8 8 9 12 11 9 4 5 4 6 3 1 2 4 5 8 9 9 9 10 11 11
12 12 11 11 11 11 11 12 12 13 13 14 14 14 14 14 14 13 13 12 12 12 12 12 10 11 7 4 6 4 3 3 3 5 10 11 12 12 9 11 9 7 4 6 5 6 2 3 3 3 4 2 7 6 8 6 4 4 2 5 7 9 8 8 9 9 8 9 8 9 10 7 9 9 11 2 3 1 3 4 6 7 7 8 9 9 9 8
12 12 12 11 12 12 12 12 13 14 14 15 15 14 14 14 15 15 14 12 12 12 10 10 10 6 7 7 7 3 2 3 5 6 9 12 10 7 6 8 7 4 4 5 4 4 3 2 6 9 1 5 6 4 10 6 4 6 5 8 8 8 9 9 9 7 4 9 6 7 10 12 10 13 5 1 1 2 5 5 6 7 6 8 8 8 9 7
12 12 12 12 12 12 12 13 14 14 14 15 15 15 15 16 17 17 15 12 10 9 8 6 6 5 5 8 3 7 2 4 4 7 8 8 7 5 5 5 6 3 1 1 3 3 4 3 6 9 1 6 5 2 6 4 6 4 7 8 6 9 10 8 3 6 8 5 3 3 8 8 13 14 4 2 2 4 6 6 6 6 6 7 8 9 8 8
13 12 12 12 12 12 13 13 14 15 15 15 15 16 16 17 18 16 13 11 9 8 7 8 6 5 5 7 3 3 3 3 5 7 8 7 8 7 5 5 4 3 1 1 3 1 4 3 5 5 2 6 4 4 8 6 4 7 3 4 7 5 3 8 3 2 8 5 5 7 8 6 6 8 5 3 2 5 6 7 7 7 6 6 7 9 10 12
13 13 13 12 13 13 13 14 14 15 15 15 16 17 17 17 13 12 8 7 7 6 6 7 5 4 6 3 6 4 4 1 6 9 9 10 8 6 6 6 6 5 2 1 2 1 2 4 5 6 6 3 2 6 6 6 6 6 5 8 8 6 4 6 4 1 3 6 3 8 8 10 6 7 4 2 2 4 6 7 8 7 7 6 7 10 9 10
13 13 13 13 13 13 13 14 15 16 16 16 17 18 16 12 11 4 4 5 5 7 6 7 5 7 8 7 4 7 7 7 7 9 10 10 9 6 7 7 6 5 5 4 1 1 3 7 7 4 4 5 7 7 6 6 7 7 8 4 4 4 2 3 9 4 1 2 4 8 7 3 8 5 3 2 2 4 6 7 7 8 6 6 7 8 8 10
13 13 14 13 13 13 14 14 15 16 17 17 18 15 11 9 2 4 6 7 6 5 5 2 2 4 5 5 3 5 5 5 5 5 7 9 8 6 9 9 7 8 5 4 3 3 6 9 3 2 5 7 7 6 7 7 7 7 7 7 4 5 2 5 9 5 2 3 4 4 8 9 7 3 3 1 3 5 6 7 7 7 6 6 8 9 10 10
13 13 14 14 13 14 14 15 15 17 17 17 17 12 6 5 7 8 7 4 2 3 3 3 4 5 8 4 5 5 6 7 4 5 5 5 8 9 9 8 7 9 9 8 5 6 7 6 6 6 7 7 7 8 9 8 7 7 6 6 7 8 8 6 2 9 6 3 7 7 9 11 12 10 6 5 3 6 6 6 6 7 7 7 8 9 11 11
14 14 14 14 14 14 14 15 16 16 17 18 16 6 8 10 7 3 2 4 5 4 5 6 6 5 3 5 4 4 5 4 1 6 6 10 8 9 7 5 11 12 9 8 7 7 6 4 6 7 9 10 11 12 10 2 4 2 4 4 4 4 5 5 3 3 3 6 8 9 10 9 11 11 9 7 6 7 7 7 6 7 7 7 8 10 10 10
14 14 14 14 14 14 15 15 15 16 16 14 5 5 4 5 6 4 4 5 8 10 12 5 8 9 4 6 3 3 1 2 5 5 8 7 10 11 10 10 10 9 7 8 10 7 7 8 9 10 10 11 12 12 10 3 3 2 4 5 6 6 7 2 5 5 4 7 9 11 12 13 13 13 12 7 6 8 9 9 9 8 7 8 9 10 12 12
14 14 14 14 14 14 15 14 14 15 11 9 7 5 3 5 7 0 5 9 11 10 10 10 10 10 6 3 1 1 3 8 4 6 7 9 10 13 11 11 10 9 9 6 7 6 6 9 10 12 10 8 8 7 3 3 4 6 7 8 7 7 7 4 3 3 1 5 7 7 7 11 14 15 14 11 7 11 11 11 11 11 10 8 10 11 14 13
14 15 15 15 15 15 15 14 15 12 11 6 5 5 2 5 6 3 4 4 4 9 10 11 7 9 7 11 5 2 3 3 8 6 7 11 12 13 12 12 12 10 9 6 6 6 8 11 10 9 3 4 5 7 6 7 7 8 8 7 8 7 4 2 3 3 3 4 5 6 8 9 12 14 14 13 11 10 11 11 11 11 11 10 10 12 13 13
15 15 15 15 15 16 15 15 15 7 5 4 4 5 1 4 2 2 4 7 10 4 7 7 7 9 10 7 8 5 10 11 9 12 10 11 12 12 12 13 12 9 10 11 9 8 8 10 12 4 6 6 6 7 7 7 7 6 7 7 8 2 2 2 8 6 5 6 8 8 10 10 13 15 16 14 12 12 13 13 11 10 11 12 12 12 13 15
14 15 15 15 16 15 16 15 12 5 3 4 6 4 4 2 4 2 5 5 6 1 4 2 5 4 3 3 6 12 13 9 10 10 14 11 10 9 9 15 13 10 10 13 13 9 7 6 2 8 8 9 8 8 8 7 8 9 9 9 8 7 4 6 5 4 5 9 10 10 9 10 12 13 12 13 14 14 12 8 8 9 10 11 11 12 14 16
14 14 15 15 15 17 16 17 5 2 4 7 6 1 1 4 3 3 5 5 5 4 4 4 3 3 3 2 6 10 9 7 9 3 13 13 11 10 10 10 9 11 11 13 12 10 9 5 4 9 10 11 10 9 10 9 8 8 10 11 10 10 12 12 9 5 7 7 9 8 7 9 10 11 12 8 9 12 10 10 11 11 12 12 13 14 14 14
13 14 14 14 15 16 19 7 3 3 7 4 4 3 3 4 2 3 5 4 3 6 6 5 4 6 3 5 6 5 4 8 8 7 8 13 9 10 6 8 8 9 13 10 9 6 4 9 8 8 9 10 11 9 9 10 9 8 4 7 10 10 9 8 6 5 6 9 7 6 7 6 2 6 7 8 9 11 9 8 8 8 9 12 13 13 14 15
13 14 13 13 13 16 8 2 4 7 6 5 3 2 5 5 1 4 4 4 4 3 1 5 4 6 4 4 7 6 8 7 5 7 9 10 13 8 10 9 9 5 1 5 3 8 9 7 7 7 8 8 8 9 7 8 8 8 4 4 4 5 5 5 6 8 7 4 3 7 6 8 9 8 7 7 9 10 9 6 3 4 5 7 9 11 13 14
13 13 13 12 11 9 5 8 8 5 3 5 3 4 5 4 2 4 5 4 2 3 3 5 3 3 3 3 7 8 8 2 7 8 9 10 11 9 12 10 11 11 9 7 8 6 11 10 11 12 11 9 8 6 5 10 9 2 5 1 4 3 4 4 5 6 5 4 8 10 10 8 9 7 4 7 11 12 11 4 1 2 3 5 7 9 12 13
13 13 12 12 12 13 7 6 6 6 4 1 4 5 4 2 6 5 3 4 2 1 1 2 1 5 3 5 7 10 6 3 4 8 7 7 10 4 12 12 10 9 12 11 8 7 5 6 10 12 10 10 10 10 8 9 9 8 3 3 4 4 4 5 6 6 4 5 8 9 10 8 8 8 9 8 10 10 2 3 5 6 4 3 4 6 9 11
14 13 12 12 11 6 4 5 9 6 2 4 5 6 4 5 5 5 3 4 2 4 2 3 5 1 3 5 6 7 8 4 2 6 9 9 12 6 3 7 9 7 9 10 12 2 5 3 3 7 8 9 8 8 8 9 10 6 4 6 6 5 4 5 5 5 5 8 11 11 7 8 9 7 7 5 1 5 4 2 5 6 6 1 2 4 5 6
14 13 12 10 6 3 3 6 3 5 3 3 6 6 4 5 5 2 5 3 3 5 3 2 1 3 3 4 4 7 7 5 6 9 10 8 12 9 6 7 5 7 6 8 10 8 7 6 6 6 8 2 3 3 4 6 6 6 6 8 6 6 5 6 6 6 6 9 6 2 6 8 10 7 4 6 3 2 5 6 7 8 5 4 2 3 4 5
15 15 13 9 8 6 6 3 4 2 1 5 7 4 6 5 3 5 1 4 6 4 2 3 1 4 5 2 4 5 6 9 8 10 10 11 11 12 12 9 10 9 10 9 9 8 9 9 7 8 7 8 6 6 8 7 7 8 7 7 8 7 4 7 8 8 9 7 4 3 5 7 11 11 4 8 2 5 6 6 8 7 4 0 3 4 5 5
14 16 18 13 11 10 13 11 4 4 6 6 5 6 6 3 5 5 3 1 2 5 4 4 5 7 4 7 3 2 4 8 10 9 9 12 11 11 13 12 12 10 7 10 8 7 8 10 12 12 9 10 10 9 8 8 9 10 10 8 9 9 7 7 9 6 8 6 5 4 2 10 8 2 9 7 8 7 6 6 7 5 3 2 3 5 6 6
16 19 12 6 7 9 7 6 5 4 4 4 6 7 5 4 3 5 3 1 4 1 4 3 7 4 4 3 5 2 8 4 10 7 9 10 11 10 10 11 10 13 6 4 9 9 7 9 12 11 9 12 13 12 8 7 11 11 11 10 9 9 7 6 8 7 7 5 4 5 5 5 10 4 5 7 6 6 5 7 8 8 7 5 4 6 5 6
19 18 10 7 8 9 10 7 4 4 4 5 7 8 5 6 1 2 3 2 2 3 3 3 5 6 6 4 3 1 5 5 7 8 9 9 10 10 10 11 13 10 7 7 5 3 10 6 4 13 2 11 14 14 13 9 4 8 8 7 9 8 6 9 3 6 4 3 4 6 4 3 2 5 3 3 6 8 9 10 8 8 6 6 7 7 8 7
15 1 1 3 4 3 8 7 7 5 5 6 8 6 6 1 1 1 2 3 1 4 7 5 4 6 3 3 4 1 4 4 8 8 6 9 8 9 10 8 12 14 8 8 5 7 4 7 7 8 5 7 9 11 13 9 9 7 7 9 10 5 8 3 2 2 1 3 7 2 5 8 5 6 4 5 6 8 8 9 7 7 8 8 7 7 7 7
4 4 3 4 3 3 6 8 7 6 5 7 6 7 1 2 4 2 4 3 5 6 5 5 4 4 1 2 1 2 3 4 8 9 7 6 5 7 7 6 6 13 13 8 6 5 6 3 6 7 11 10 3 3 6 12 8 4 9 8 2 2 7 5 6 3 5 8 3 3 6 8 6 3 3 4 5 6 8 8 7 8 7 8 8 7 7 6
6 3 1 5 3 3 6 8 7 5 6 6 6 3 0 3 2 3 2 2 3 2 5 4 2 4 1 3 3 2 2 6 6 8 8 7 1 4 4 6 8 9 12 11 7 4 6 7 8 8 1 8 5 6 8 8 9 10 3 5 7 5 9 8 4 8 7 6 5 7 5 7 7 1 6 4 3 6 8 6 6 8 7 6 6 8 7 8
4 4 5 5 3 4 6 7 6 5 6 6 4 4 3 1 3 2 1 3 2 4 4 1 4 2 3 2 3 2 3 4 5 7 7 6 6 2 1 2 4 5 4 6 8 4 5 6 5 5 6 7 7 8 9 10 11 11 5 8 6 3 7 6 6 7 6 7 5 4 3 4 4 6 3 7 4 6 6 6 6 6 6 5 4 5 5 5
4 5 4 3 3 4 6 6 5 5 5 4 4 1 3 3 3 3 3 3 2 4 0 2 2 3 1 3 4 3 2 4 3 3 7 4 5 2 1 2 1 2 3 8 9 5 4 4 5 7 7 5 8 8 10 9 10 10 9 9 6 7 2 4 3 7 6 5 5 5 5 1 4 5 6 5 4 4 5 6 6 4 3 5 5 5 4 3
3 3 5 3 4 5 5 5 6 5 4 3 2 2 3 0 1 3 1 2 4 2 5 3 3 3 4 4 4 3 3 2 1 3 4 4 6 4 2 3 3 1 3 6 10 5 3 5 8 5 9 8 4 4 4 4 3 7 9 10 9 9 9 9 8 6 8 6 5 4 5 5 2 3 3 2 3 3 4 6 4 4 4 4 4 4 3 3
5 6 5 3 4 6 5 4 2 0 2 3 3 1 3 3 4 1 2 3 5 2 3 4 4 5 3 3 4 3 4 3 0 2 2 3 5 3 5 4 3 3 3 4 6 6 3 4 7 8 5 7 4 9 6 3 1 3 6 8 6 8 6 7 9 5 6 8 3 8 7 1 6 4 2 2 4 6 4 4 5 6 7 7 7 6 5 5
5 3 4 4 5 5 6 2 2 2 1 3 1 3 0 2 2 2 3 2 4 3 3 5 2 4 2 3 3 4 4 3 3 1 2 2 6 8 6 4 1 4 5 2 2 3 2 4 7 8 9 4 5 5 2 1 3 6 5 3 6 10 8 10 8 4 5 4 4 4 5 2 1 4 2 6 6 6 6 6 6 5 5 5 6 8 9 8
4 6 6 5 4 4 4 2 2 1 3 4 1 3 0 2 1 2 3 2 3 3 3 2 2 2 3 2 4 4 4 3 2 1 3 1 3 5 7 7 2 1 4 3 3 6 5 6 7 6 7 7 7 6 7 4 5 3 1 2 4 5 6 5 6 5 6 9 8 6 7 2 2 4 6 5 7 8 8 8 6 6 5 6 7 7 7 8
6 4 4 5 5 4 1 2 0 2 3 4 3 4 4 4 2 4 2 2 1 1 3 3 2 3 3 1 4 4 2 4 2 2 3 2 4 3 6 7 6 5 6 3 3 3 3 1 4 9 9 11 10 8 7 7 7 4 3 2 3 3 2 5 6 7 8 5 10 7 3 5 5 4 6 6 5 7 6 7 7 7 7 6 6 7 7 7
8 3 4 4 3 2 3 0 2 1 4 4 3 3 1 4 5 2 3 2 3 1 2 3 1 2 4 4 4 2 1 0 3 2 2 1 3 3 5 5 8 10 9 11 5 4 1 3 3 5 5 4 4 4 3 5 2 5 4 3 4 3 3 6 4 6 6 7 7 9 3 8 8 7 5 5 4 6 6 7 7 7 7 7 7 7 7 7
1 3 5 4 4 2 2 2 2 2 2 1 1 1 3 1 2 4 2 2 4 1 2 3 3 3 2 3 3 3 2 3 1 2 3 4 2 2 4 5 4 11 7 7 11 3 4 5 9 11 13 9 2 4 8 6 3 4 2 4 4 6 2 4 4 2 7 3 5 6 2 5 7 7 6 7 7 7 7 7 7 7 7 6 6 6 7 8
4 2 1 3 2 4 4 3 1 4 4 2 3 0 2 3 2 2 4 2 1 1 3 3 2 2 3 3 3 3 2 1 1 1 1 4 3 2 5 5 7 6 3 4 8 6 4 6 5 8 6 2 1 2 5 6 6 6 7 6 7 7 6 3 5 5 6 2 2 3 8 6 7 8 10 10 8 9 8 8 8 7 6 6 5 6 10 9
2 3 2 2 2 4 4 6 2 4 4 1 4 1 4 2 3 2 2 2 2 2 4 1 1 3 3 3 3 3 2 5 1 4 5 5 5 4 1 5 7 9 6 7 8 5 3 5 3 6 4 4 4 5 3 4 5 8 10 9 6 6 7 6 6 7 6 6 4 5 9 11 8 7 9 9 8 9 8 7 7 7 6 6 7 8 8 9
5 4 5 1 4 5 5 4 4 4 4 1 1 3 2 2 3 2 3 2 1 1 0 1 2 2 3 2 2 1 4 4 4 2 5 7 2 4 1 2 3 7 9 6 3 6 3 0 4 5 5 3 3 5 7 7 6 10 9 9 8 4 4 7 4 7 4 4 5 5 6 6 6 6 6 7 7 8 8 8 8 7 7 7 8 9 9 9
3 3 1 6 5 4 4 4 4 3 3 3 2 4 2 2 4 2 4 1 1 2 2 2 3 1 1 2 1 3 3 3 2 3 4 4 4 5 5 2 3 1 2 2 3 1 3 2 3 5 6 4 6 8 6 5 6 9 10 10 10 10 6 6 4 6 5 5 4 1 2 2 5 6 6 8 8 8 9 8 7 7 8 8 9 10 10 10
1 1 2 3 3 1 2 3 2 3 2 3 3 3 1 4 3 1 2 1 0 2 4 3 3 5 2 2 2 3 4 4 4 4 3 4 3 4 2 5 5 4 1 3 1 2 4 1 1 2 6 4 7 10 10 7 4 2 5 7 7 6 7 4 2 7 7 7 4 2 5 5 5 5 6 7 8 8 9 8 7 8 8 8 9 9 9 10
Wind_Direction
354 356 356 354 347 344 341 340 338 334 330 327 324 322 323 324 321 319 319 315 311 309 307 303 311 311 307 307 309 308 318 293 297 277 245 253 76 125 163 282 174 194 184 187 157 163 166 169 169 168 178 187 174 200 157 207 186 204 215 231 230 246 232 78 272 10 20 296 0 344 351 335 323 352 10 312 208 326 215 239 142 154 83 353 85 123 135 147
356 356 356 353 348 343 344 340 338 334 331 319 320 321 318 320 317 312 315 312 309 307 312 313 309 306 308 302 305 326 302 287 279 269 248 93 138 165 184 209 167 185 204 181 170 177 166 172 168 180 174 192 159 179 164 175 208 211 219 233 244 233 50 23 45 30 323 359 332 329 329 331 324 327 0 323 348 284 224 192 189 174 127 116 140 139 146 151
356 356 354 353 346 343 341 339 336 334 326 321 324 321 321 315 314 316 312 312 313 315 309 307 308 306 307 307 299 303 291 284 260 228 145 142 160 173 172 161 175 188 207 178 185 182 182 172 167 182 188 178 191 163 202 162 204 225 255 231 241 57 49 29 63 33 324 332 318 324 321 320 329 317 336 309 320 280 241 177 182 202 170 162 150 154 153 159
355 355 353 350 346 341 336 337 333 331 326 321 320 320 317 317 318 319 319 316 316 311 310 308 310 310 307 306 317 299 271 280 229 112 95 121 190 177 177 165 184 197 225 238 194 196 204 168 173 194 175 205 163 197 191 156 215 176 235 243 330 79 248 134 196 353 317 313 317 309 315 293 347 325 306 323 306 212 157 178 251 197 179 165 163 166 165 166
354 355 354 351 348 340 335 332 333 328 326 322 320 317 318 316 317 321 318 313 312 310 309 310 311 309 311 310 305 276 268 261 103 93 36 20 143 167 167 171 175 188 216 180 181 179 184 172 177 193 200 182 165 180 213 173 228 276 235 256 325 151 251 118 271 319 308 308 289 299 298 328 326 292 300 301 302 330 29 21 219 214 178 170 170 172 172 174
350 350 351 348 343 342 334 333 330 329 325 321 317 317 316 317 318 318 316 313 310 311 310 313 312 312 312 313 296 251 259 305 43 57 358 94 126 149 156 163 182 200 197 175 179 172 174 172 180 182 202 194 182 197 183 207 195 237 214 233 224 266 276 300 287 290 300 294 297 299 316 323 302 303 300 312 295 314 343 326 303 215 181 175 172 172 180 181
345 345 346 347 344 338 337 331 330 327 324 321 317 316 315 316 316 318 318 315 310 311 313 314 315 312 321 299 266 247 255 308 121 75 98 122 133 144 150 160 181 196 186 168 173 170 179 171 198 189 201 208 179 216 162 202 201 240 254 162 239 244 254 268 278 285 279 287 293 297 307 294 299 290 337 295 293 289 311 293 263 228 176 167 176 180 188 187
341 343 344 343 342 337 335 334 330 325 324 320 319 315 317 316 315 316 316 313 312 309 312 315 313 313 334 304 239 236 241 351 79 85 115 129 145 147 155 164 178 180 187 180 170 181 175 183 198 183 223 217 162 207 176 213 209 223 242 231 247 243 259 268 271 274 284 282 284 290 286 286 288 302 307 288 291 341 297 254 226 188 172 174 183 182 190 187
339 339 340 340 339 338 336 334 330 326 322 322 317 317 316 317 314 313 313 312 310 308 308 313 310 317 304 278 275 289 144 68 36 81 144 147 139 151 157 160 189 187 185 185 196 179 195 187 206 203 233 211 157 206 178 212 211 223 241 243 253 250 258 267 274 274 272 277 280 282 278 278 283 322 277 272 349 355 283 222 190 175 178 181 183 185 186 184
336 336 336 338 338 337 336 334 329 326 323 319 319 318 318 314 313 311 311 309 308 305 304 312 306 312 294 262 262 262 86 105 99 121 147 143 145 149 169 158 178 183 177 180 202 196 213 163 227 164 309 236 176 202 183 221 31 78 231 251 264 273 275 265 269 276 283 275 272 271 278 279 288 286 250 100 69 49 210 196 190 186 186 183 179 179 183 183
334 333 334 336 337 338 335 332 330 324 322 321 320 319 316 314 310 309 306 304 301 301 300 301 310 302 271 268 276 278 110 182 118 132 147 150 153 159 159 164 179 176 180 165 204 211 161 255 182 155 256 179 187 179 207 213 293 233 293 262 250 252 254 258 259 263 262 259 253 256 268 280 265 259 258 25 61 308 228 199 189 201 184 177 176 175 167 171
332 331 332 333 336 336 335 331 328 326 321 322 320 317 316 313 310 306 301 297 293 291 292 294 288 286 276 262 247 296 135 112 142 133 151 159 162 146 138 170 186 179 179 163 197 199 212 270 194 203 338 141 192 133 215 204 233 246 250 256 246 242 248 234 242 259 254 266 258 267 274 250 233 239 223 70 5 245 239 214 208 206 185 171 169 162 161 152
329 329 330 333 334 335 332 330 326 323 322 320 318 318 316 314 310 301 296 288 280 274 274 268 254 262 287 256 240 75 138 130 136 146 149 168 151 148 145 174 202 221 276 274 153 186 199 241 224 214 261 238 162 246 68 214 224 255 234 255 265 240 243 207 206 245 247 247 280 250 250 229 206 222 188 59 236 224 229 220 211 210 193 169 165 152 124 122
329 326 330 331 332 333 331 329 324 324 321 319 319 317 317 314 308 303 291 276 270 254 243 249 264 254 259 271 93 106 123 115 124 170 169 158 171 153 167 180 201 219 192 337 82 89 194 219 229 257 3 235 175 112 202 185 216 236 200 228 253 252 200 118 214 140 243 97 232 211 249 240 142 187 81 75 229 223 228 219 214 212 197 175 170 135 154 172
328 328 329 329 331 332 331 327 325 322 321 318 319 319 317 315 312 310 296 262 237 230 219 230 234 243 222 241 95 107 90 193 211 205 184 183 200 176 186 159 178 193 200 194 123 165 197 192 216 212 192 201 342 199 211 215 193 229 228 222 214 238 147 138 141 230 318 118 201 220 243 248 218 123 98 86 181 227 239 224 221 218 202 180 148 142 159 174
328 328 328 328 331 332 329 327 324 324 320 321 319 317 318 306 311 15 354 36 107 177 189 203 210 246 292 262 112 133 171 192 207 209 200 213 209 229 154 163 148 160 189 164 141 133 187 180 208 210 175 174 226 216 215 213 210 209 238 254 190 206 183 213 170 166 336 283 149 249 281 262 227 154 116 104 230 224 238 235 228 228 208 190 143 152 162 172
328 328 328 329 330 330 329 326 325 324 322 321 320 312 319 301 17 77 110 152 155 186 205 245 181 208 271 73 164 202 161 162 87 142 178 210 212 189 147 146 161 156 170 151 184 182 157 200 139 235 249 222 208 219 227 225 224 204 207 245 248 242 176 227 125 184 176 282 238 192 255 252 292 164 178 169 236 237 242 240 233 226 219 191 156 161 169 176
328 329 329 329 329 330 328 326 325 324 323 322 317 311 290 308 309 180 154 180 138 188 201 279 250 260 222 183 216 125 103 123 154 107 151 159 197 167 168 160 144 153 156 146 164 196 163 197 188 219 185 216 210 210 224 226 227 208 189 224 221 221 245 287 246 104 261 207 262 256 250 262 263 255 220 211 216 241 248 252 246 231 217 194 181 173 183 184
328 329 329 327 330 329 327 326 324 324 326 324 296 277 244 239 232 237 197 171 181 174 207 167 203 212 26 81 88 135 170 70 224 205 149 161 169 174 177 167 162 155 178 197 150 195 172 203 203 228 210 201 205 216 224 302 359 320 247 256 284 257 186 218 203 325 314 283 270 258 259 253 251 249 234 197 221 240 248 249 251 242 225 195 196 179 193 190
328 328 327 327 328 328 326 325 324 323 332 319 299 225 216 216 188 180 188 224 237 271 304 296 237 294 252 225 148 26 286 202 230 148 135 153 161 168 169 167 168 204 182 211 138 205 174 204 197 211 219 210 210 222 242 337 289 314 257 261 254 257 260 200 251 266 282 283 261 259 256 258 264 263 257 225 192 237 247 248 247 239 227 205 203 185 190 196
327 327 327 326 327 326 325 325 321 323 331 297 283 258 302 4 305 80 345 269 248 252 265 267 257 267 287 41 104 265 207 184 240 155 166 163 179 169 168 178 178 201 201 198 162 128 212 225 219 222 231 231 206 205 228 266 254 259 264 261 256 246 261 123 244 272 225 272 270 264 268 264 263 263 255 244 215 241 248 248 243 241 229 223 204 195 190 193
328 326 325 326 326 325 323 322 320 329 302 267 265 284 13 36 15 12 296 301 267 254 246 256 270 260 249 235 243 329 314 272 199 165 137 184 173 201 160 197 187 209 163 156 145 167 207 223 226 220 159 181 193 199 211 231 233 241 255 255 260 257 289 264 254 176 179 229 276 272 270 271 263 259 255 246 238 244 246 254 255 247 234 225 209 197 191 185
328 325 325 328 326 324 323 319 322 331 269 226 277 271 29 41 359 318 267 275 274 204 237 235 223 240 241 235 231 192 238 227 219 180 168 199 174 223 159 200 195 201 161 194 204 193 215 223 228 176 169 180 189 200 206 216 233 239 229 238 245 295 307 197 155 177 202 268 294 300 288 281 273 263 259 254 249 247 245 244 250 250 240 230 216 202 195 192
327 326 325 327 327 324 320 322 306 250 224 297 287 271 38 343 344 291 253 280 315 184 215 181 256 259 246 249 161 194 208 217 226 204 156 188 190 186 194 202 195 204 199 199 217 221 221 51 165 162 189 200 191 190 205 221 232 221 244 259 263 258 246 269 296 297 302 258 250 271 266 260 252 246 238 233 233 241 239 228 228 235 239 234 223 210 202 197
325 326 327 326 327 324 321 317 269 181 307 273 247 223 340 340 324 306 272 257 217 208 124 171 225 221 113 130 164 199 210 238 217 224 166 195 184 173 209 191 218 205 216 202 218 235 242 122 189 198 194 206 212 206 215 234 247 244 222 244 268 280 276 269 262 274 265 260 189 230 261 251 233 231 235 231 191 221 217 218 224 224 223 223 222 212 203 200
325 325 329 326 328 328 309 285 108 322 302 291 89 118 345 329 311 271 260 274 225 120 191 154 202 123 172 151 157 199 139 220 198 196 183 201 193 210 143 204 206 213 209 202 213 239 262 137 188 208 201 209 219 229 214 217 252 252 227 192 240 253 268 274 254 232 247 264 134 210 262 275 210 231 210 212 214 215 188 221 235 234 232 223 221 214 204 199
326 324 325 329 330 335 304 86 358 295 265 141 104 353 332 311 315 209 253 205 222 77 191 63 211 94 238 115 174 180 208 143 128 177 190 196 203 196 209 187 187 268 238 153 201 217 217 185 200 192 200 210 211 225 204 213 239 247 99 229 246 261 252 246 241 234 267 347 182 218 249 271 270 240 203 214 225 231 214 205 252 272 264 255 240 225 211 205
323 323 322 325 330 327 310 311 300 266 341 70 19 335 318 309 216 218 255 240 127 177 146 150 26 138 275 152 195 223 25 99 188 166 201 174 214 169 235 199 201 193 164 179 226 99 187 193 202 205 216 226 226 223 189 199 233 278 99 176 243 287 290 250 226 230 252 295 251 209 212 247 251 252 185 213 229 224 219 158 69 7 300 266 251 231 218 207
320 319 323 321 321 298 277 253 281 269 56 39 332 316 325 273 225 256 268 259 90 235 38 123 138 198 135 157 202 230 248 295 319 118 160 172 211 269 204 224 216 198 181 202 243 131 197 207 204 217 216 225 231 236 229 207 230 232 183 262 276 263 257 245 228 233 206 235 246 240 196 249 255 248 214 194 239 241 156 47 47 18 349 301 253 234 220 204
317 320 318 325 312 244 215 233 244 258 313 320 308 312 290 222 221 222 199 236 105 153 223 91 215 24 310 239 201 200 223 200 37 141 168 183 178 228 301 323 217 182 189 204 255 43 91 68 342 235 213 230 234 230 223 209 230 37 208 229 212 217 208 198 241 241 228 235 240 243 187 241 270 259 259 248 52 13 353 15 18 7 360 288 218 238 209 201
316 315 315 313 290 341 302 248 213 231 250 294 310 290 242 221 248 248 204 64 251 87 185 172 112 256 284 307 174 165 219 205 161 157 160 179 175 211 184 188 201 213 205 210 228 200 182 157 201 196 234 241 291 183 203 240 238 229 230 233 215 202 189 211 199 215 236 245 241 207 213 227 257 245 238 66 81 13 3 2 1 348 344 330 174 178 176 154
314 311 303 292 274 281 249 51 71 115 152 316 306 242 212 200 209 223 136 111 249 65 351 40 313 343 311 149 296 175 183 180 181 179 173 184 174 192 190 197 173 193 206 201 214 189 213 216 217 218 187 234 204 235 152 197 200 221 233 234 232 210 196 216 200 206 220 247 119 146 184 219 235 266 353 124 61 23 28 11 10 352 345 219 163 144 155 140
308 306 298 278 258 236 239 260 278 295 298 282 268 216 214 226 220 203 200 224 113 347 92 309 327 316 309 260 164 161 188 202 167 201 189 184 199 196 195 216 180 212 221 190 217 189 218 214 205 215 200 203 226 221 171 196 200 211 219 217 224 227 212 230 223 226 238 195 120 227 211 262 271 214 59 40 43 27 33 35 33 20 38 49 116 134 143 159
309 306 294 268 240 228 236 239 254 274 262 223 226 187 245 231 219 26 305 338 46 46 295 334 309 283 258 309 61 249 178 124 171 177 198 180 203 193 186 219 214 201 254 168 224 210 221 196 205 199 210 181 210 224 213 210 185 210 221 228 233 246 243 233 238 235 240 261 115 134 218 248 249 74 53 64 46 43 40 51 54 46 52 55 90 121 126 125
308 296 268 251 236 236 227 227 220 220 266 227 203 204 185 212 94 165 187 78 61 318 313 339 289 286 167 196 78 199 327 151 201 172 197 181 195 205 191 197 199 223 205 221 178 247 232 255 110 191 25 170 201 203 234 249 259 203 217 237 247 242 243 260 353 306 304 257 192 169 253 266 331 118 103 83 66 53 53 59 58 56 57 69 66 83 99 106
295 287 198 212 212 183 200 200 203 217 243 210 203 198 219 330 191 187 58 340 53 334 327 273 243 251 194 169 137 213 124 275 171 211 180 196 181 203 195 191 195 204 206 220 156 221 194 232 132 162 173 206 212 199 206 222 228 166 206 217 231 259 257 255 172 84 172 255 267 205 239 248 181 147 80 99 78 68 66 68 69 71 71 69 77 89 97 111
308 282 197 158 164 130 173 179 182 205 231 224 206 206 212 117 12 66 45 351 17 325 298 282 116 306 192 170 136 123 127 220 180 214 188 181 188 212 182 193 201 196 221 235 207 248 258 202 153 180 191 199 235 227 229 207 241 155 219 217 123 256 290 252 256 187 236 253 246 212 251 257 243 221 72 99 83 73 72 74 70 70 62 72 71 79 90 102
310 283 279 76 48 135 162 173 182 208 226 211 212 19 149 229 140 345 39 299 210 249 292 271 90 286 152 251 155 50 77 238 170 213 210 191 167 351 240 210 180 224 222 225 255 186 243 237 177 194 178 134 168 205 213 220 229 236 272 351 232 194 215 206 255 245 252 249 261 240 244 266 262 320 126 102 110 101 89 80 85 77 78 79 80 89 98 105
269 264 149 50 101 143 163 171 214 215 204 209 189 196 161 341 90 245 46 335 314 310 261 74 317 108 320 259 358 177 352 249 180 215 213 180 213 61 18 334 162 216 250 248 229 210 211 252 181 129 211 153 187 202 215 190 198 233 267 247 242 298 247 228 202 255 252 265 252 250 205 261 29 88 174 105 82 93 110 107 80 90 95 98 102 95 101 116
235 212 121 79 114 157 159 193 228 202 214 213 182 198 86 196 182 189 219 280 204 245 343 310 169 296 236 352 324 352 31 309 233 205 243 160 194 186 172 251 347 159 226 222 242 218 224 214 264 158 165 164 209 192 226 203 194 194 216 231 207 241 16 280 279 248 248 252 248 257 250 177 63 28 40 74 75 90 92 98 116 118 102 87 81 84 77 71
240 246 109 103 145 149 183 230 211 189 198 69 355 101 168 30 152 176 169 242 273 255 310 283 296 255 6 308 175 18 293 263 234 222 235 170 223 176 78 5 337 328 194 209 222 201 237 200 236 189 201 210 187 66 19 324 294 244 221 227 224 223 216 223 239 206 251 254 261 250 253 94 41 33 34 53 61 97 122 111 106 93 88 71 72 68 58 86
244 177 122 104 144 189 247 192 110 355 231 184 128 159 108 359 238 119 212 155 251 264 177 285 262 286 283 274 337 330 319 260 116 229 191 288 115 332 69 351 290 272 255 191 229 170 266 248 230 238 231 240 109 104 77 57 316 294 253 250 247 255 236 244 255 214 218 243 277 278 291 93 51 49 70 39 51 41 52 111 101 72 52 47 48 47 45 48
214 95 64 144 167 249 260 120 118 179 176 66 89 181 116 211 299 58 251 170 223 206 248 236 286 270 162 321 353 312 351 266 342 235 35 159 75 35 22 358 296 223 241 168 194 62 295 241 230 239 232 176 144 134 153 234 204 201 198 258 241 234 241 240 254 320 262 205 232 248 242 145 100 73 61 74 74 61 57 58 73 82 74 58 47 35 30 32
128 136 137 148 212 275 264 185 155 113 101 117 131 91 124 350 274 184 221 133 287 168 248 253 208 238 318 351 300 310 349 266 90 281 150 333 93 34 32 22 329 110 313 69 294 124 212 209 251 224 216 215 185 185 198 168 228 247 149 57 332 291 271 269 286 244 259 255 251 246 260 86 143 165 108 113 98 76 64 53 52 70 58 46 36 28 29 33
141 104 127 149 197 251 254 28 49 108 115 121 130 118 145 171 69 345 322 65 207 319 241 207 341 333 268 330 292 294 308 331 254 59 340 38 74 82 42 18 39 62 32 28 325 164 243 51 208 227 217 211 202 208 212 203 210 110 104 68 32 345 282 219 227 231 242 237 235 231 243 116 136 161 139 123 118 93 70 63 59 49 43 42 37 34 31 37
176 147 157 154 183 174 97 31 327 94 129 139 115 86 224 147 136 106 273 116 360 114 1 319 191 272 284 290 248 241 201 321 304 10 297 121 96 93 36 22 38 36 46 55 14 222 215 165 222 275 282 269 45 6 60 312 221 214 113 56 40 7 303 267 306 250 238 225 226 240 262 141 150 150 152 131 73 89 68 55 49 49 46 48 47 45 40 39
205 188 156 170 159 221 135 176 146 229 139 276 142 176 130 66 126 140 313 212 74 345 85 11 358 244 299 275 295 257 304 272 155 239 33 339 40 29 36 26 24 20 13 51 18 337 232 209 206 222 244 276 48 19 12 357 343 42 26 43 34 13 341 258 249 285 348 306 250 25 3 147 115 128 122 119 99 82 73 62 56 54 49 52 62 64 59 49
208 100 215 28 276 143 175 139 153 99 93 245 88 257 86 144 171 149 167 73 125 70 251 148 69 64 15 3 313 259 288 246 38 13 306 26 324 35 162 74 79 21 47 69 31 18 300 259 160 202 200 103 59 75 42 48 43 45 42 28 28 22 26 62 42 19 333 313 352 31 336 84 89 77 71 62 74 79 70 66 66 67 68 62 62 56 48 45
335 96 91 348 253 79 36 89 130 112 118 55 113 212 121 109 103 73 340 144 193 95 328 89 326 50 19 4 312 250 353 249 116 56 27 2 32 317 106 155 85 34 25 78 81 24 306 281 205 203 161 126 110 128 158 140 93 60 36 23 11 28 32 33 39 14 16 56 63 101 79 57 39 51 69 80 81 85 82 82 78 69 66 69 70 63 55 48
171 181 142 165 89 106 112 135 140 170 126 219 193 91 66 67 83 93 133 264 173 129 327 208 51 49 32 342 319 278 55 30 30 23 37 345 152 24 48 12 341 11 24 32 42 56 1 254 161 193 177 144 117 128 138 137 113 83 58 43 25 7 64 37 25 16 320 96 79 114 99 74 52 61 87 97 92 92 85 70 63 57 57 64 69 67 62 61
9 347 356 160 138 108 140 162 176 169 141 175 192 125 199 82 69 21 82 1 36 81 31 39 23 48 94 323 54 85 56 29 350 10 347 352 331 19 332 69 346 350 48 43 23 15 54 310 269 242 220 166 162 151 120 110 98 87 59 35 27 24 28 8 22 18 358 357 358 156 179 112 103 87 82 82 83 75 76 65 56 53 58 63 70 68 66 62
261 88 277 242 151 168 199 138 161 208 127 60 24 100 323 80 51 3 135 107 31 22 25 357 15 296 138 215 83 41 15 315 316 317 320 327 313 315 285 294 297 319 347 83 247 146 116 84 250 238 255 180 158 152 147 147 133 184 36 6 350 9 357 335 94 35 21 333 292 278 56 62 121 132 101 82 82 75 67 58 60 62 56 62 64 65 65 64